Tracking 25656 objects as of 21-May-2022
HD Live streaming from Space Station
objects crossing your sky now

ARIANA 1 DEB

Track ARIANA 1 DEB now!
10-day predictions


NORAD ID: 48260
Int'l Code: 1979-104AL
Perigee: 304.3 km
Apogee: 10,329.5 km
Inclination: 23.0 °
Period: 209.6 minutes
Semi major axis: 11687 km
RCS: Unknown
Launch date: December 24, 1979
Source: European Space Agency (ESA)
Launch site: FRENCH GUIANA (FRGUI)

Note: This is SATELLITE DEBRIS
aabbcc
Your satellite tracking list
Your tracking list is empty




NASA's NSSDC Master Catalog

Two Line Element Set (TLE):
1 48260U 79104AL  22140.57585088  .00006768  00000-0  71131-3 0  9999
2 48260  23.0205 242.2465 4288713  49.0279 340.9338  6.87063818567772
Source of the keplerian elements: AFSPC